Topeka, KS

6:00 PM CST on February 19, 2017 (GMT -0600)
Billard Municipal

Weather History for KTOP - September, 2012

Change the Weather History Date:

Tuesday, September 25, 2012

  Actual Average Record
Temperature  
Mean Temperature 71 °F 64 °F  
Max Temperature 82 °F 77 °F 93 °F (1898)
Min Temperature 60 °F 52 °F 33 °F (1989)
Degree Days  
Heating Degree Days 0 4  
Month to date heating degree days 43 41  
Since 1 July heating degree days 43 43  
Cooling Degree Days 6 3  
Month to date cooling degree days 142 151  
Year to date cooling degree days 1931 1379  
Growing Degree Days 21 (Base 50)    
Moisture  
Dew Point 61 °F    
Average Humidity 71    
Maximum Humidity 90    
Minimum Humidity 51    
Precipitation  
Precipitation T in 0.13 in 1.64 in (1887)
Month to date precipitation 0.46 3.07  
Year to date precipitation 19.46 29.64  
Snow  
Snow 0.00 in 0.00 in 0.00 in ()
Month to date snowfall 0.0 0.0  
Year to date snowfall 3.0 11.3  
Since 1 July snowfall 0.0 0.0  
Snow Depth 0.00 in    
Sea Level Pressure  
Sea Level Pressure 29.79 in    
Wind  
Wind Speed 3 mph (WSW)    
Max Wind Speed 15 mph    
Max Gust Speed 29 mph    
Visibility 10 miles    
Events Rain , Thunderstorm    
T = Trace of Precipitation, MM = Missing Value Source: NWS Daily Summary

Daily Weather History Graph

Daily Weather History Graph

Search for Another Location

Airport or City:

Trip Planner

Search our weather history database for the weather conditions in past years. The results will help you decide how hot, cold, wet, or windy it might be!

Date:

Astronomy

Sep. 25, 2012 Rise Set
Actual Time 7:13 AM CDT 7:13 PM CDT
Civil Twilight 6:46 AM CDT 7:40 PM CDT
Nautical Twilight 6:15 AM CDT 8:11 PM CDT
Astronomical Twilight 5:44 AM CDT 8:42 PM CDT
Moon 4:37 PM CDT (9/25) 2:37 AM CDT (9/25)
Length of Visible Light 12h 53m
Length of Day
12h 00m
Waxing Gibbous, 80% of the Moon is Illuminated
Sep 25
Waxing Gibbous
Sep 29
Full
Oct 8
Last Quarter
Oct 15
New
Oct 21
First Quarter

Hourly Weather History & Observations

Time (CDT) Temp. Heat Index Dew Point Humidity Pressure Visibility Wind Dir Wind Speed Gust Speed Precip Events Conditions
12:53 AM 66.9 °F - 59.0 °F 76% 29.75 in 10.0 mi Calm Calm - N/A   Clear
1:15 AM 69.8 °F - 60.8 °F 73% 29.78 in 10.0 mi Calm Calm - 0.00 in Rain , Thunderstorm Light Thunderstorms and Rain
1:53 AM 69.1 °F - 61.0 °F 75% 29.75 in 10.0 mi Calm Calm - 0.00 in Thunderstorm Clear
2:01 AM 66.2 °F - 60.8 °F 83% 29.78 in 10.0 mi Calm Calm - N/A   Clear
2:53 AM 64.9 °F - 60.1 °F 84% 29.75 in 10.0 mi Calm Calm - N/A   Clear
3:53 AM 66.0 °F - 59.0 °F 78% 29.75 in 10.0 mi West 3.5 mph - N/A   Clear
4:53 AM 62.1 °F - 59.0 °F 90% 29.75 in 10.0 mi SSE 3.5 mph - N/A   Clear
5:53 AM 61.0 °F - 57.9 °F 90% 29.76 in 10.0 mi Calm Calm - N/A   Clear
6:53 AM 64.0 °F - 57.9 °F 80% 29.78 in 10.0 mi WSW 3.5 mph - N/A   Clear
7:53 AM 62.1 °F - 57.9 °F 86% 29.79 in 10.0 mi Calm Calm - N/A   Clear
8:53 AM 64.0 °F - 57.9 °F 80% 29.82 in 10.0 mi NW 3.5 mph - N/A   Clear
9:53 AM 66.9 °F - 57.9 °F 73% 29.83 in 10.0 mi WNW 3.5 mph - N/A   Clear
10:53 AM 71.1 °F - 59.0 °F 66% 29.83 in 10.0 mi West 3.5 mph - N/A   Clear
11:53 AM 75.0 °F - 59.0 °F 57% 29.83 in 10.0 mi Calm Calm - N/A   Clear
12:53 PM 79.0 °F - 60.1 °F 52% 29.81 in 10.0 mi Calm Calm - N/A   Clear
1:53 PM 82.4 °F 82.9 °F 60.8 °F 48% 29.82 in 10.0 mi SW 6.9 mph - N/A   Clear
2:53 PM 80.1 °F 81.1 °F 61.0 °F 52% 29.79 in 10.0 mi SSW 5.8 mph - N/A   Partly Cloudy
3:53 PM 81.0 °F 81.7 °F 61.0 °F 50% 29.78 in 10.0 mi South 4.6 mph - N/A   Clear
4:53 PM 79.0 °F - 62.1 °F 56% 29.81 in 10.0 mi WNW 3.5 mph - N/A   Mostly Cloudy
5:53 PM 75.0 °F - 66.0 °F 73% 29.79 in 10.0 mi NNW 3.5 mph - 0.00 in   Mostly Cloudy
6:53 PM 75.0 °F - 64.9 °F 71% 29.79 in 10.0 mi North 3.5 mph - N/A   Scattered Clouds
7:53 PM 71.1 °F - 62.1 °F 73% 29.78 in 10.0 mi Calm Calm - N/A   Clear
8:53 PM 69.1 °F - 63.0 °F 81% 29.79 in 10.0 mi SSE 5.8 mph - N/A   Clear
9:53 PM 75.0 °F - 62.1 °F 64% 29.86 in 10.0 mi SSE 11.5 mph - N/A   Mostly Cloudy
10:53 PM 71.1 °F - 62.1 °F 73% 29.82 in 10.0 mi NNE 3.5 mph - N/A   Clear
11:53 PM 69.8 °F - 62.6 °F 78% 29.85 in 10.0 mi East 5.8 mph - N/A   Clear